Le nostre stazioni meteo in Italia

Pubblicità
Il mio iltempo24.it
Parma, Italia (16086): Temperatura & dewpoint: 12.03.2019 20:00:00 - 18.03.2019 20:00:00 (CET)Parma, Italia (16086): velocità del vento: 12.03.2019 20:00:00 - 18.03.2019 20:00:00 (CET)Parma, Italia (16086): direzione del vento: 12.03.2019 20:00:00 - 18.03.2019 20:00:00 (CET)Parma, Italia (16086): reduced air pressure: 12.03.2019 20:00:00 - 18.03.2019 20:00:00 (CET)Parma, Italia (16086): precipitazioni: 12.03.2019 20:00:00 - 18.03.2019 20:00:00 (CET)
Data & Tempo tt [°C] td [°C] ff [km/h] ff [kn] dd ppp [hPa] rr [mm]
18.03.2019 20:00:00 - - - - - - -
18.03.2019 19:00:00 9,0 2,8 17 9 E 1018,4 0,0
18.03.2019 18:00:00 10,4 3,9 23 12 E 1017,2 0,0
18.03.2019 17:00:00 11,9 4,1 19 10 E 1016,0 0,0
18.03.2019 16:00:00 12,4 4,9 19 11 E 1015,5 0,0
18.03.2019 15:00:00 13,0 4,7 16 9 E 1015,2 0,0
18.03.2019 14:00:00 13,8 0,4 9 5 N 1015,1 0,0
18.03.2019 13:00:00 13,1 2,9 8 5 N 1015,6 0,0
18.03.2019 12:00:00 12,8 2,6 5 3 NNO 1015,5 0,0
18.03.2019 11:00:00 11,3 2,8 6 3 NNO 1015,1 0,0
18.03.2019 10:00:00 - - - - - - -
18.03.2019 09:00:00 8,8 4,0 10 5 NO 1013,8 0,0
18.03.2019 08:00:00 9,9 4,3 11 6 ONO 1012,6 0,0
18.03.2019 07:00:00 9,3 4,7 9 5 OSO 1011,4 0,2
18.03.2019 06:00:00 9,3 5,8 14 8 S 1011,0 1,0
18.03.2019 05:00:00 9,9 7,1 11 6 O 1010,6 0,2
18.03.2019 04:00:00 12,6 5,0 6 4 ONO 1008,7 0,0
18.03.2019 03:00:00 12,5 4,9 2 1 SSE 1008,8 0,0
18.03.2019 02:00:00 13,9 5,0 4 2 SSO 1009,8 0,0
18.03.2019 01:00:00 14,1 4,7 6 3 OSO 1010,2 0,0
18.03.2019 00:00:00 13,8 4,7 5 3 SO 1010,6 0,0
17.03.2019 23:00:00 13,9 5,3 5 3 S 1011,0 0,0
17.03.2019 22:00:00 14,4 5,2 10 5 SO 1011,5 0,0
17.03.2019 21:00:00 13,8 4,9 8 4 OSO 1011,5 0,0
17.03.2019 20:00:00 14,4 4,9 8 4 SO 1011,7 0,0
17.03.2019 19:00:00 15,1 4,8 13 7 SO 1011,8 0,0
17.03.2019 18:00:00 16,1 4,5 13 7 OSO 1011,7 0,0
17.03.2019 17:00:00 17,0 5,9 4 2 NO 1012,1 0,0
17.03.2019 16:00:00 18,0 5,9 4 2 SSO 1012,5 0,0
17.03.2019 15:00:00 16,8 6,6 7 4 NO 1013,2 0,0
17.03.2019 14:00:00 17,1 6,9 5 3 ONO 1013,6 0,0
17.03.2019 13:00:00 16,7 7,1 6 4 N 1014,4 0,0
17.03.2019 12:00:00 16,6 7,0 9 5 N 1015,4 0,0
17.03.2019 11:00:00 15,0 6,5 6 3 NNE 1016,1 0,0
17.03.2019 10:00:00 14,2 6,1 3 2 N 1016,7 0,0
17.03.2019 09:00:00 12,5 5,6 2 1 N 1016,8 0,0
17.03.2019 08:00:00 11,0 5,3 2 1 SO 1016,8 0,0
17.03.2019 07:00:00 10,1 4,5 4 2 SSO 1016,5 0,0
17.03.2019 06:00:00 9,5 3,9 2 1 SSO 1016,4 0,0
17.03.2019 05:00:00 9,7 3,9 5 3 S 1016,3 0,0
17.03.2019 04:00:00 10,7 5,7 8 4 SE 1016,2 0,0
17.03.2019 03:00:00 11,0 5,7 4 2 SSE 1016,0 0,0
17.03.2019 02:00:00 11,4 6,3 4 2 SSE 1016,2 0,0
17.03.2019 01:00:00 12,0 6,5 5 3 SSE 1016,1 0,0
17.03.2019 00:00:00 11,9 6,8 7 4 E 1016,3 0,0
16.03.2019 23:00:00 14,9 3,7 7 4 SSE 1015,8 0,0
16.03.2019 22:00:00 16,0 2,7 9 5 SSE 1015,6 0,0
16.03.2019 21:00:00 16,5 3,2 10 6 SSE 1014,7 0,0
16.03.2019 20:00:00 17,4 3,7 16 8 S 1014,0 0,0
16.03.2019 19:00:00 19,5 4,0 16 9 SSO 1013,4 0,0
16.03.2019 18:00:00 21,1 5,8 9 5 SSO 1013,0 0,0
16.03.2019 17:00:00 21,7 6,8 7 4 SE 1012,8 0,0
16.03.2019 16:00:00 22,0 6,2 6 4 E 1013,0 0,0
16.03.2019 15:00:00 22,2 4,3 6 3 NE 1012,9 0,0
16.03.2019 14:00:00 21,1 4,6 4 2 NO 1013,5 0,0
16.03.2019 13:00:00 20,0 7,0 6 3 S 1014,3 0,0
16.03.2019 12:00:00 17,7 6,5 5 3 S 1015,0 0,0
16.03.2019 11:00:00 15,9 6,1 4 2 S 1015,3 0,0
16.03.2019 10:00:00 14,0 5,4 - - - 1015,4 -
16.03.2019 09:00:00 12,6 4,1 4 2 S 1015,0 0,0
16.03.2019 08:00:00 10,8 3,8 - - - - 0,0
16.03.2019 07:00:00 9,1 3,5 4 2 SE 1013,9 0,0
16.03.2019 06:00:00 9,0 3,6 2 1 SE 1013,5 0,0
16.03.2019 05:00:00 10,8 4,0 4 2 SE 1013,0 0,0
16.03.2019 04:00:00 10,5 4,8 1 1 ESE 1013,0 0,0
16.03.2019 03:00:00 9,7 5,5 3 2 ENE 1013,0 0,0
16.03.2019 02:00:00 10,5 4,6 3 2 N 1013,4 0,0
16.03.2019 01:00:00 12,2 2,9 8 4 NO 1013,3 0,0
16.03.2019 00:00:00 13,9 0,2 3 2 NO 1013,1 0,0
15.03.2019 23:00:00 17,3 -0,4 9 5 SO 1012,8 0,0
15.03.2019 22:00:00 17,6 -0,7 10 5 SO 1012,4 0,0
15.03.2019 21:00:00 17,7 -0,6 13 7 SO 1011,8 0,0
15.03.2019 20:00:00 17,3 0,4 11 6 SO 1011,2 0,0
15.03.2019 19:00:00 17,9 1,0 11 6 OSO 1010,4 0,0
15.03.2019 18:00:00 19,0 1,0 14 7 SSO 1010,0 0,0
15.03.2019 17:00:00 21,4 0,6 16 9 SSO 1009,5 0,0
15.03.2019 16:00:00 22,1 1,1 18 10 SO 1009,3 0,0
15.03.2019 15:00:00 23,0 0,1 9 5 SO 1009,2 0,0
15.03.2019 14:00:00 22,4 -1,0 12 6 SSO 1009,3 0,0
15.03.2019 13:00:00 20,8 0,6 5 3 O 1010,0 0,0
15.03.2019 12:00:00 17,9 2,2 6 3 NO 1010,9 0,0
15.03.2019 11:00:00 15,3 2,1 3 1 ENE 1011,9 0,0
15.03.2019 10:00:00 12,5 1,8 7 4 ENE 1011,9 0,0
15.03.2019 09:00:00 10,3 1,4 7 4 E 1011,2 0,0
15.03.2019 08:00:00 10,7 -0,2 3 1 SO 1010,5 0,0
15.03.2019 07:00:00 9,1 -0,8 8 4 OSO 1010,6 0,0
15.03.2019 06:00:00 7,8 -1,4 10 5 OSO 1010,2 0,0
15.03.2019 05:00:00 8,2 -2,2 7 4 O 1009,7 0,0
15.03.2019 04:00:00 9,0 -4,2 9 5 OSO 1009,6 0,0
15.03.2019 03:00:00 9,2 -5,1 7 4 O 1009,3 0,0
15.03.2019 02:00:00 9,6 -4,0 6 3 ONO 1009,2 0,0
15.03.2019 01:00:00 10,6 -4,2 6 3 OSO 1008,9 0,0
15.03.2019 00:00:00 11,6 -2,6 9 5 OSO 1009,0 0,0
14.03.2019 23:00:00 11,7 -2,5 11 6 SO 1009,0 0,0
14.03.2019 22:00:00 11,7 -1,1 13 7 SSO 1009,3 0,0
14.03.2019 21:00:00 12,5 -0,7 14 7 SO 1009,3 0,0
14.03.2019 20:00:00 13,6 -2,0 13 7 SO 1009,9 0,0
14.03.2019 19:00:00 14,2 -4,1 11 6 SO 1009,9 0,0
14.03.2019 18:00:00 15,1 -5,3 14 7 S 1009,4 0,0
14.03.2019 17:00:00 15,9 -6,4 8 5 S 1009,7 0,0
14.03.2019 16:00:00 15,9 -7,0 5 3 O 1010,4 0,0
14.03.2019 15:00:00 16,2 -6,8 5 3 O 1011,1 0,0
14.03.2019 14:00:00 16,5 -5,9 5 3 ONO 1012,0 0,0
14.03.2019 13:00:00 15,7 -4,8 5 3 O 1013,8 0,0
14.03.2019 12:00:00 14,3 -1,8 6 3 ONO 1014,5 0,0
14.03.2019 11:00:00 12,4 -1,5 5 3 ONO 1015,3 0,0
14.03.2019 10:00:00 9,5 -0,4 3 2 O 1016,1 0,0
14.03.2019 09:00:00 8,0 -0,5 3 2 OSO 1016,2 0,0
14.03.2019 08:00:00 4,9 -0,7 6 3 OSO 1016,3 0,0
14.03.2019 07:00:00 3,1 -0,9 8 4 SO 1016,4 0,0
14.03.2019 06:00:00 2,3 -0,6 - - - 1016,7 0,0
14.03.2019 05:00:00 2,7 -0,8 7 4 OSO 1016,3 0,0
14.03.2019 04:00:00 2,9 -0,4 4 2 OSO 1016,4 0,0
14.03.2019 03:00:00 4,0 0,5 6 3 OSO 1016,1 0,0
14.03.2019 02:00:00 4,5 0,6 2 1 SE 1015,9 0,0
14.03.2019 01:00:00 4,4 0,9 - - - 1015,7 0,0
14.03.2019 00:00:00 5,4 3,1 - - - 1015,5 0,0
13.03.2019 23:00:00 5,7 3,0 2 1 SSO 1015,3 0,0
13.03.2019 22:00:00 5,7 3,5 6 3 SE 1014,8 0,0
13.03.2019 21:00:00 5,7 3,9 8 4 SE 1014,2 0,0
13.03.2019 20:00:00 5,8 3,8 8 4 ESE 1013,9 0,0
13.03.2019 19:00:00 6,6 3,7 6 3 ENE 1013,4 0,0
13.03.2019 18:00:00 7,5 3,5 7 4 E 1012,7 0,0
13.03.2019 17:00:00 7,5 3,2 9 5 E 1012,2 0,0
13.03.2019 16:00:00 7,6 3,5 14 8 SE 1012,3 0,0
13.03.2019 15:00:00 - - - - - - -
13.03.2019 14:00:00 - - - - - - -
13.03.2019 13:00:00 - - - - - - -
13.03.2019 12:00:00 8,2 0,4 9 5 SE 1014,3 0,0
13.03.2019 11:00:00 8,1 0,6 3 2 S 1014,6 0,0
13.03.2019 10:00:00 8,6 -2,7 4 2 S 1014,8 0,0
13.03.2019 09:00:00 8,0 -3,5 6 3 S 1014,8 0,0
13.03.2019 08:00:00 6,9 -3,1 6 4 S 1015,3 0,0
13.03.2019 07:00:00 7,0 -4,1 3 1 ESE 1015,6 0,0
13.03.2019 06:00:00 6,4 -3,5 3 1 NNE 1015,8 0,0
13.03.2019 05:00:00 7,4 -2,3 5 3 NO 1016,1 0,0
13.03.2019 04:00:00 9,1 -1,9 6 3 O 1016,5 0,0
13.03.2019 03:00:00 9,7 -2,9 8 5 OSO 1017,5 0,0
13.03.2019 02:00:00 9,7 -3,9 10 6 OSO 1018,4 0,0
13.03.2019 01:00:00 10,6 -7,6 13 7 SO 1019,3 0,0
13.03.2019 00:00:00 9,9 -8,2 9 5 SO 1019,9 0,0
12.03.2019 23:00:00 9,7 -8,4 11 6 SSO 1020,2 0,0
12.03.2019 22:00:00 11,0 -8,3 7 4 SSO 1020,9 0,0
12.03.2019 21:00:00 10,4 -7,8 8 4 SSO 1021,3 0,0
12.03.2019 20:00:00 12,5 -11,2 0 0 ENE 1021,5 0,0

tt = Temperatura
td = dewpoint
ff = velocità del vento
dd = direzione del vento
ppp = reduced air pressure
rr = precipitazioni

Stazioni seguenti

WeatherPro
AMSI
MeteoEarth